METAR Formatted Surface Weather Observation
Issued by NWS

Current Version | Previous Version | Text Only | Print | Product List | Glossary On
Versions: 1 2 3 4 5 6 7 8 9 10 11 12 13 14 15 16 17 18 19 20 21 22 23 24 25 26 27 28 29 30 31 32 33 34 35 36 37 38 39 40 41 42 43 44 45 46 47 48 49 50
285
SAUS44 KLIX 232056
MTRBVE
METAR KBVE 232051Z AUTO 18011G19KT 6SM HZ SCT018 BKN025 29/26 A2993
RMK AO2 SLP136 T02940261 58013



USA.gov is the U.S. government's official web portal to all federal, state and local government web resources and services.